QPF
0.01 0.01 0.01 0.00 0.00 0.00 0.00 0.00 0.00 0.00 0.00 0.00 0.00 0.00 0.00 0.00 0.00 0.00 0.00 0.00 0.00 0.00 0.00 0.00 0.00 0.00 0.00 0.00 0.00 0.00 0.00 0.00 0.00 0.00 0.00 0.00 0.00 0.00 0.00 0.00 0.00 0.00 0.01
0.01 0.02 0.03 0.00 0.00 0.00 0.00 0.00 0.00 0.00 0.00 0.00 0.00 0.00 0.00 0.00 0.00 0.00 0.00 0.00 0.00 0.00 0.00 0.00 0.00 0.00 0.00 0.00 0.00 0.00 0.00 0.00 0.00 0.00 0.00 0.00 0.00 0.00 0.00 0.00 0.00 0.01 0.01
0.02 0.00 0.00 0.01 0.07 0.01 0.00 0.00 0.00 0.00 0.00 0.00 0.00 0.00 0.00 0.00 0.00 0.00 0.00 0.00 0.00 0.00 0.00 0.00 0.00 0.00 0.00 0.00 0.00 0.00 0.00 0.00 0.00 0.00 0.00 0.00 0.00 0.00 0.00 0.00 0.00 0.00 0.00
0.04 0.01 0.03 0.00 0.14 0.15 0.05 0.00 0.00 0.00 0.00 0.00 0.00 0.00 0.00 0.00 0.00 0.00 0.00 0.00 0.00 0.00 0.00 0.00 0.00 0.00 0.00 0.00 0.00 0.00 0.00 0.00 0.00 0.00 0.00 0.00 0.00 0.00 0.01 0.00 0.00 0.00 0.00
0.00 0.01 0.00 0.00 0.03 0.27 0.17 0.05 0.00 0.00 0.00 0.00 0.01 0.00 0.00 0.00 0.00 0.00 0.00 0.00 0.00 0.00 0.00 0.00 0.00 0.00 0.00 0.00 0.00 0.00 0.00 0.00 0.00 0.00 0.00 0.00 0.00 0.00 0.01 0.01 0.00 0.00 0.00
0.00 0.00 0.00 0.00 0.03 0.29 0.39 0.17 0.02 0.00 0.00 0.00 0.01 0.00 0.00 0.00 0.00 0.00 0.00 0.00 0.00 0.00 0.00 0.00 0.00 0.00 0.00 0.00 0.00 0.00 0.00 0.00 0.00 0.00 0.00 0.00 0.00 0.00 0.00 0.00 0.00 0.00 0.00
0.05 0.03 0.00 0.03 0.12 0.27 0.36 0.43 0.10 0.00 0.00 0.01 0.01 0.00 0.00 0.00 0.00 0.00 0.00 0.00 0.00 0.00 0.00 0.00 0.00 0.00 0.00 0.00 0.00 0.00 0.00 0.00 0.00 0.00 0.00 0.00 0.00 0.00 0.00 0.00 0.00 0.00 0.00
0.13 0.06 0.06 0.15 0.43 1.24 0.88 0.70 0.22 0.01 0.01 0.02 0.02 0.00 0.00 0.00 0.00 0.00 0.00 0.00 0.00 0.00 0.00 0.00 0.00 0.00 0.00 0.00 0.00 0.00 0.00 0.00 0.00 0.00 0.00 0.00 0.00 0.00 0.00 0.00 0.00 0.00 0.00
0.07 0.07 0.22 0.19 0.27 1.85 2.26 1.19 0.31 0.01 0.02 0.03 0.02 0.00 0.00 0.00 0.00 0.00 0.00 0.00 0.00 0.00 0.00 0.00 0.00 0.00 0.00 0.00 0.00 0.00 0.00 0.00 0.00 0.00 0.00 0.00 0.00 0.00 0.00 0.00 0.00 0.00 0.00
0.10 0.04 0.11 0.33 0.31 0.96 1.50 1.02 0.33 0.05 0.01 0.03 0.02 0.00 0.00 0.00 0.00 0.00 0.00 0.00 0.00 0.00 0.00 0.00 0.00 0.00 0.00 0.00 0.00 0.00 0.00 0.00 0.00 0.00 0.00 0.00 0.00 0.00 0.00 0.00 0.00 0.00 0.00
0.09 0.13 0.29 0.57 0.64 0.96 1.02 0.69 0.20 0.14 0.04 0.02 0.01 0.00 0.00 0.00 0.00 0.00 0.00 0.00 0.00 0.00 0.00 0.00 0.00 0.00 0.00 0.00 0.00 0.00 0.00 0.00 0.00 0.00 0.00 0.00 0.00 0.00 0.00 0.00 0.00 0.00 0.00
0.12 0.29 0.37 0.31 0.04 0.10 0.32 0.47 0.18 0.13 0.15 0.07 0.01 0.00 0.00 0.00 0.00 0.00 0.00 0.00 0.00 0.00 0.00 0.00 0.00 0.00 0.00 0.00 0.00 0.00 0.00 0.00 0.00 0.00 0.00 0.00 0.00 0.00 0.00 0.00 0.00 0.00 0.00
0.07 0.19 0.16 0.04 0.00 0.00 0.02 0.10 0.19 0.12 0.09 0.08 0.05 0.00 0.00 0.00 0.00 0.00 0.00 0.00 0.00 0.00 0.00 0.00 0.00 0.00 0.00 0.00 0.00 0.00 0.00 0.00 0.00 0.00 0.00 0.00 0.00 0.00 0.00 0.00 0.00 0.00 0.00
0.09 0.11 0.05 0.03 0.02 0.01 0.00 0.03 0.09 0.05 0.04 0.04 0.02 0.00 0.00 0.00 0.00 0.00 0.00 0.00 0.00 0.00 0.00 0.00 0.00 0.00 0.00 0.00 0.00 0.00 0.00 0.00 0.00 0.00 0.00 0.00 0.00 0.00 0.00 0.00 0.00 0.00 0.00
0.08 0.11 0.09 0.05 0.02 0.00 0.00 0.00 0.01 0.00 0.00 0.00 0.00 0.00 0.00 0.00 0.00 0.00 0.00 0.00 0.00 0.00 0.00 0.00 0.00 0.00 0.00 0.00 0.00 0.00 0.00 0.00 0.00 0.00 0.00 0.00 0.00 0.00 0.00 0.00 0.00 0.00 0.00
0.06 0.12 0.13 0.04 0.01 0.00 0.00 0.00 0.00 0.00 0.00 0.00 0.00 0.00 0.00 0.00 0.00 0.00 0.00 0.00 0.00 0.00 0.00 0.00 0.00 0.00 0.00 0.00 0.00 0.00 0.00 0.00 0.00 0.00 0.00 0.00 0.00 0.00 0.00 0.00 0.00 0.00 0.00
0.03 0.04 0.08 0.06 0.02 0.01 0.00 0.00 0.00 0.00 0.00 0.00 0.00 0.00 0.00 0.00 0.00 0.00 0.00 0.00 0.00 0.00 0.00 0.00 0.00 0.00 0.00 0.00 0.00 0.00 0.00 0.00 0.00 0.00 0.00 0.00 0.00 0.00 0.00 0.00 0.00 0.00 0.00
0.01 0.08 0.21 0.11 0.08 0.02 0.01 0.00 0.00 0.00 0.00 0.00 0.00 0.00 0.00 0.00 0.00 0.00 0.00 0.00 0.00 0.00 0.00 0.00 0.00 0.00 0.00 0.00 0.00 0.00 0.00 0.00 0.00 0.00 0.00 0.00 0.00 0.00 0.00 0.00 0.00 0.00 0.00
0.00 0.01 0.22 0.26 0.08 0.07 0.00 0.01 0.01 0.00 0.00 0.00 0.00 0.00 0.00 0.00 0.00 0.00 0.00 0.00 0.00 0.00 0.00 0.00 0.00 0.00 0.00 0.00 0.00 0.00 0.00 0.00 0.00 0.00 0.00 0.00 0.00 0.00 0.00 0.00 0.00 0.00 0.00
0.00 0.00 0.08 0.30 0.11 0.06 0.01 0.02 0.04 0.04 0.00 0.00 0.00 0.00 0.00 0.00 0.01 0.00 0.00 0.00 0.00 0.00 0.00 0.00 0.00 0.00 0.00 0.00 0.00 0.00 0.00 0.00 0.00 0.00 0.00 0.00 0.00 0.00 0.00 0.00 0.00 0.00 0.00
0.00 0.00 0.01 0.13 0.09 0.03 0.02 0.01 0.05 0.06 0.01 0.00 0.00 0.00 0.00 0.00 0.01 0.00 0.00 0.00 0.00 0.00 0.00 0.00 0.00 0.00 0.00 0.00 0.00 0.00 0.00 0.00 0.00 0.00 0.00 0.00 0.00 0.00 0.00 0.00 0.00 0.00 0.00
0.00 0.00 0.00 0.00 0.00 0.00 0.01 0.01 0.01 0.02 0.01 0.00 0.00 0.00 0.00 0.00 0.00 0.00 0.00 0.00 0.00 0.00 0.00 0.00 0.00 0.00 0.00 0.00 0.00 0.00 0.00 0.00 0.00 0.00 0.00 0.00 0.00 0.00 0.00 0.00 0.00 0.00 0.00
0.00 0.00 0.00 0.00 0.00 0.00 0.00 0.00 0.00 0.01 0.01 0.00 0.00 0.00 0.00 0.00 0.00 0.00 0.00 0.00 0.00 0.00 0.00 0.00 0.00 0.00 0.00 0.00 0.00 0.00 0.00 0.00 0.00 0.00 0.00 0.00 0.00 0.00 0.00 0.00 0.00 0.00 0.00
0.00 0.00 0.00 0.00 0.00 0.00 0.00 0.00 0.00 0.00 0.00 0.00 0.00 0.00 0.00 0.00 0.00 0.00 0.00 0.00 0.00 0.00 0.00 0.02 0.03 0.02 0.01 0.00 0.00 0.00 0.00 0.00 0.00 0.00 0.00 0.00 0.00 0.00 0.00 0.00 0.00 0.00 0.00
0.00 0.00 0.00 0.00 0.00 0.00 0.00 0.00 0.00 0.00 0.00 0.00 0.00 0.00 0.00 0.00 0.00 0.00 0.00 0.00 0.00 0.00 0.02 0.03 0.02 0.03 0.02 0.01 0.00 0.00 0.00 0.01 0.01 0.00 0.00 0.00 0.00 0.00 0.00 0.00 0.00 0.00 0.00
0.00 0.00 0.00 0.00 0.00 0.00 0.00 0.00 0.00 0.00 0.00 0.00 0.00 0.00 0.00 0.00 0.00 0.00 0.00 0.00 0.02 0.02 0.06 0.07 0.03 0.02 0.02 0.01 0.00 0.00 0.00 0.01 0.00 0.00 0.00 0.00 0.00 0.00 0.00 0.00 0.00 0.00 0.00
MSLP
1010.69 1010.84 1010.95 1010.68 1011.44 1011.61 1011.92 1011.58 1013.83 1014.25 1014.34 1014.20 1014.08 1014.03 1013.89 1014.55 1014.91 1015.02 1015.16 1015.48 1015.97 1016.53 1017.06 1017.37 1017.76 1018.05 1018.37 1018.65 1019.04 1019.34 1019.36 1019.47 1019.43 1019.54 1019.65 1019.32 1019.55 1019.79 1019.76 1019.96 1019.93 1020.04 1019.89
1010.74 1010.73 1010.95 1011.37 1011.63 1011.79 1011.66 1012.33 1013.75 1013.72 1014.66 1014.70 1014.78 1014.65 1014.33 1014.65 1014.97 1015.22 1015.38 1015.57 1016.13 1016.83 1017.19 1017.71 1018.05 1018.47 1018.81 1019.10 1019.56 1019.87 1020.04 1020.20 1020.01 1020.01 1020.32 1020.33 1019.89 1020.43 1020.35 1020.44 1020.54 1020.65 1020.67
1010.94 1010.90 1011.02 1011.16 1011.55 1011.78 1012.22 1012.41 1011.93 1013.72 1014.71 1015.16 1015.35 1015.11 1015.03 1015.12 1015.09 1015.44 1015.67 1015.93 1016.16 1016.83 1017.38 1017.87 1018.41 1018.77 1019.29 1019.55 1019.90 1020.16 1020.53 1020.65 1020.88 1020.46 1020.73 1020.79 1020.47 1020.83 1020.78 1021.04 1021.18 1021.42 1021.50
1010.65 1011.06 1011.15 1011.22 1011.69 1011.83 1012.13 1012.97 1013.35 1013.40 1015.10 1015.47 1015.63 1015.64 1015.35 1015.43 1015.59 1016.09 1016.00 1016.32 1016.67 1017.13 1017.73 1018.24 1018.75 1019.11 1019.51 1019.73 1020.32 1020.58 1020.93 1021.09 1021.43 1021.17 1021.27 1021.13 1021.06 1021.30 1021.55 1021.85 1021.92 1022.20 1022.31
1011.36 1011.17 1011.45 1011.76 1011.62 1011.95 1012.01 1011.95 1013.38 1014.25 1015.19 1015.57 1016.02 1015.73 1015.49 1015.89 1016.11 1016.19 1016.49 1016.70 1017.17 1017.54 1018.10 1018.63 1019.17 1019.45 1019.83 1020.12 1020.61 1020.93 1021.22 1021.43 1021.77 1021.73 1021.94 1021.96 1021.85 1021.80 1022.18 1022.43 1022.69 1022.78 1022.84
1011.59 1011.49 1011.70 1011.81 1011.73 1011.82 1013.22 1013.40 1013.63 1014.61 1015.58 1015.87 1016.18 1015.71 1015.74 1016.12 1016.42 1016.67 1016.82 1017.12 1017.81 1017.89 1018.66 1019.05 1019.36 1019.75 1020.21 1020.53 1020.87 1021.22 1021.71 1021.82 1022.06 1022.41 1022.67 1022.48 1022.39 1022.55 1022.72 1023.08 1023.28 1023.43 1023.53
1011.42 1011.27 1011.68 1012.05 1011.98 1012.70 1013.96 1014.37 1015.37 1015.13 1015.78 1016.16 1016.36 1015.97 1016.07 1016.04 1016.81 1017.06 1017.21 1017.55 1018.26 1018.51 1018.94 1019.51 1019.56 1019.88 1020.61 1020.81 1021.09 1021.53 1022.13 1022.25 1022.53 1022.83 1022.97 1023.00 1022.83 1023.01 1023.25 1023.50 1023.80 1023.97 1024.11
1011.05 1011.24 1011.76 1012.21 1012.98 1012.84 1013.39 1013.43 1015.28 1015.45 1016.09 1016.25 1016.38 1016.43 1016.26 1016.55 1016.71 1017.21 1017.64 1018.01 1018.55 1018.99 1019.28 1019.64 1019.71 1020.24 1020.84 1021.21 1021.56 1021.83 1022.34 1022.77 1022.79 1023.06 1023.32 1023.36 1023.28 1023.56 1023.86 1024.10 1024.43 1024.56 1024.67
1010.84 1011.00 1011.80 1012.24 1012.92 1013.71 1011.76 1013.99 1015.52 1015.33 1016.24 1016.32 1016.48 1016.73 1016.76 1016.91 1017.20 1017.47 1017.86 1018.12 1018.68 1019.14 1019.51 1019.83 1020.07 1020.62 1021.17 1021.51 1021.82 1022.09 1022.62 1023.00 1023.22 1023.37 1023.58 1023.78 1023.84 1024.05 1024.38 1024.53 1024.90 1025.05 1025.10
1011.27 1011.35 1011.77 1012.76 1013.59 1013.72 1013.42 1015.35 1016.24 1015.83 1016.29 1016.61 1016.48 1017.03 1017.09 1017.22 1017.61 1017.89 1017.93 1018.34 1018.96 1019.17 1019.73 1020.37 1020.48 1020.69 1021.25 1021.76 1022.04 1022.53 1022.92 1023.25 1023.49 1023.82 1023.95 1024.00 1024.18 1024.35 1024.80 1025.05 1025.22 1025.44 1025.59
1011.77 1011.93 1012.13 1012.73 1013.78 1014.33 1015.12 1015.70 1016.48 1016.61 1016.37 1016.67 1016.95 1017.29 1017.12 1017.49 1018.22 1018.34 1018.19 1018.59 1019.24 1019.55 1019.88 1020.58 1021.08 1021.05 1021.38 1021.76 1022.10 1022.76 1023.27 1023.63 1023.86 1024.08 1024.20 1024.31 1024.56 1024.77 1025.01 1025.31 1025.65 1025.87 1026.09
1012.21 1012.06 1012.22 1012.66 1013.97 1014.16 1014.31 1015.91 1017.21 1016.52 1016.49 1016.93 1017.60 1017.55 1017.29 1017.92 1018.46 1018.60 1018.57 1018.92 1019.17 1019.57 1020.03 1020.51 1021.07 1021.49 1021.82 1022.22 1022.65 1023.03 1023.23 1023.73 1024.18 1024.30 1024.43 1024.43 1024.78 1024.97 1025.30 1025.50 1025.85 1026.20 1026.41
1012.36 1012.84 1012.90 1013.09 1013.96 1014.24 1015.14 1015.91 1016.95 1017.09 1017.01 1017.56 1017.66 1017.52 1017.45 1017.93 1018.55 1018.93 1018.88 1019.31 1019.52 1019.96 1020.25 1020.49 1021.13 1021.79 1022.05 1022.45 1022.88 1023.21 1023.52 1023.92 1024.42 1024.44 1024.51 1024.66 1024.80 1025.23 1025.47 1025.80 1026.07 1026.38 1026.65
1012.97 1013.38 1013.56 1014.06 1014.31 1014.78 1015.09 1015.58 1016.76 1017.69 1017.94 1017.99 1017.54 1017.64 1017.38 1017.93 1018.71 1019.13 1019.29 1019.54 1020.02 1020.44 1020.78 1020.95 1021.65 1022.07 1022.44 1022.56 1022.99 1023.35 1023.57 1024.13 1024.37 1024.54 1024.72 1024.80 1025.06 1025.20 1025.48 1025.73 1026.04 1026.44 1026.76
1013.33 1013.52 1013.92 1014.32 1014.80 1015.03 1015.43 1015.82 1016.45 1016.95 1017.26 1017.17 1017.29 1017.43 1017.65 1018.06 1018.48 1018.94 1019.45 1019.81 1020.30 1020.86 1020.98 1021.39 1021.80 1022.37 1022.79 1023.07 1023.41 1023.45 1023.75 1024.15 1024.37 1024.64 1024.85 1024.97 1025.18 1025.18 1025.30 1025.59 1025.93 1026.24 1026.42
1013.66 1013.51 1013.77 1014.18 1014.67 1015.16 1015.40 1015.61 1015.93 1016.12 1016.48 1016.86 1017.12 1017.27 1017.76 1018.12 1018.50 1019.17 1019.52 1020.25 1020.65 1020.97 1021.13 1021.47 1022.01 1022.50 1023.09 1023.47 1023.85 1023.80 1023.95 1024.18 1024.41 1024.65 1024.82 1024.99 1025.17 1025.34 1025.34 1025.42 1025.83 1026.10 1026.33
1013.77 1013.95 1013.96 1014.09 1014.45 1015.08 1015.38 1015.48 1015.67 1015.84 1016.34 1016.84 1017.09 1017.34 1017.61 1018.14 1018.65 1019.29 1019.61 1020.49 1020.85 1021.21 1021.32 1021.70 1022.38 1023.01 1023.66 1023.65 1023.94 1024.18 1024.24 1024.54 1024.72 1024.70 1024.91 1025.22 1025.32 1025.35 1025.45 1025.54 1025.66 1026.01 1026.28
1013.75 1013.93 1014.05 1014.01 1014.26 1014.86 1015.20 1015.54 1015.85 1016.28 1016.40 1016.77 1017.22 1017.19 1017.74 1018.27 1018.90 1019.11 1019.80 1020.49 1020.93 1021.21 1021.36 1022.04 1022.75 1023.63 1023.83 1023.77 1024.20 1024.41 1024.51 1024.91 1024.92 1024.97 1025.14 1025.32 1025.59 1025.51 1025.53 1025.65 1025.80 1025.92 1026.21
1013.86 1014.00 1014.13 1014.05 1014.12 1014.74 1015.17 1015.72 1016.24 1016.54 1016.66 1016.99 1017.27 1017.07 1018.08 1018.39 1018.96 1019.25 1019.94 1020.35 1020.73 1021.23 1021.59 1021.83 1022.75 1023.36 1023.84 1024.07 1024.34 1024.69 1024.78 1025.07 1025.09 1025.07 1025.26 1025.43 1025.49 1025.48 1025.58 1025.52 1025.74 1025.93 1026.06
1013.80 1013.99 1014.21 1014.42 1014.43 1014.95 1015.68 1016.11 1016.59 1016.80 1016.98 1017.12 1017.44 1017.84 1018.25 1018.54 1018.89 1019.53 1019.98 1020.54 1020.49 1021.05 1021.75 1022.09 1022.64 1023.18 1023.46 1023.93 1024.47 1024.73 1025.07 1025.17 1025.01 1025.23 1025.26 1025.26 1025.29 1025.35 1025.35 1025.58 1025.89 1026.13 1026.18
1014.06 1014.34 1014.49 1014.60 1014.70 1015.28 1015.79 1016.08 1016.87 1017.21 1017.29 1017.34 1017.42 1018.17 1017.84 1018.87 1019.09 1019.61 1019.69 1020.00 1020.41 1020.86 1021.24 1021.84 1022.66 1023.08 1023.59 1023.90 1024.58 1025.08 1025.08 1024.99 1025.06 1025.19 1025.16 1025.20 1025.09 1025.20 1025.42 1025.53 1025.78 1026.14 1026.20
1014.20 1014.58 1014.60 1014.78 1015.11 1015.45 1015.69 1015.98 1016.58 1017.41 1017.54 1017.19 1016.93 1017.37 1018.46 1018.84 1018.99 1019.37 1019.51 1019.83 1020.27 1020.80 1021.25 1021.94 1022.21 1022.84 1023.17 1023.61 1024.40 1025.06 1025.21 1025.07 1024.91 1024.89 1024.95 1024.98 1025.01 1025.31 1025.54 1025.52 1025.96 1026.07 1026.10
1013.81 1014.12 1014.51 1014.87 1015.04 1015.37 1015.64 1016.23 1016.89 1017.69 1017.72 1017.67 1017.44 1017.61 1017.76 1018.22 1018.86 1019.11 1018.91 1019.72 1020.08 1020.52 1021.03 1021.31 1021.70 1021.99 1022.78 1023.45 1023.41 1023.85 1024.95 1024.83 1024.73 1024.52 1024.86 1025.02 1025.13 1025.34 1025.31 1025.49 1025.67 1025.75 1025.93
1013.59 1014.16 1014.55 1014.79 1015.06 1015.38 1015.88 1016.43 1016.87 1017.30 1017.52 1017.53 1017.79 1017.81 1017.95 1017.84 1018.00 1018.35 1018.85 1019.36 1019.79 1020.05 1020.45 1020.78 1021.09 1021.65 1022.18 1022.89 1023.43 1023.31 1023.34 1023.69 1024.39 1025.06 1024.76 1024.50 1024.71 1024.88 1024.98 1025.13 1025.16 1025.27 1025.32
1013.19 1013.77 1014.14 1014.47 1014.82 1015.14 1015.58 1016.27 1016.83 1017.16 1017.51 1017.74 1017.97 1018.15 1018.23 1018.15 1018.33 1018.41 1018.67 1019.05 1019.16 1019.37 1019.65 1020.13 1020.60 1021.12 1021.62 1022.31 1022.29 1023.02 1023.53 1023.71 1023.93 1024.85 1024.67 1024.30 1024.59 1024.38 1024.39 1024.48 1024.51 1024.90 1024.88
1012.61 1013.39 1013.94 1014.23 1014.26 1014.47 1014.98 1015.56 1016.06 1016.49 1016.98 1017.26 1017.57 1017.97 1018.01 1018.16 1018.19 1018.05 1018.21 1018.44 1018.59 1018.88 1019.15 1019.37 1019.97 1020.68 1020.96 1021.32 1021.35 1021.74 1022.23 1022.94 1023.62 1024.11 1024.35 1024.29 1024.49 1024.09 1023.98 1024.04 1024.41 1024.61 1024.81
Thickness
5693 5694 5695 5701 5697 5698 5700 5705 5685 5679 5684 5690 5696 5703 5709 5704 5702 5702 5703 5702 5699 5694 5689 5687 5683 5680 5676 5674 5671 5668 5668 5668 5668 5666 5664 5669 5666 5662 5663 5661 5661 5660 5661
5689 5689 5690 5689 5689 5689 5694 5693 5680 5684 5680 5683 5686 5692 5700 5700 5699 5699 5699 5699 5695 5689 5687 5682 5679 5674 5671 5671 5666 5663 5661 5659 5661 5661 5657 5657 5663 5657 5658 5657 5655 5654 5653
5686 5688 5689 5689 5687 5687 5688 5690 5697 5685 5677 5675 5678 5686 5690 5693 5696 5694 5694 5692 5692 5687 5683 5679 5673 5669 5666 5664 5662 5659 5656 5655 5653 5658 5655 5654 5657 5653 5654 5650 5648 5645 5645
5685 5683 5684 5686 5683 5681 5681 5676 5679 5686 5668 5669 5672 5676 5684 5686 5687 5684 5688 5686 5685 5682 5678 5673 5668 5665 5664 5662 5656 5654 5651 5651 5648 5651 5650 5650 5650 5648 5645 5642 5641 5639 5637
5676 5679 5676 5674 5677 5676 5678 5680 5671 5671 5664 5666 5665 5672 5679 5678 5678 5681 5680 5680 5677 5676 5672 5667 5661 5660 5658 5657 5652 5650 5648 5646 5643 5645 5643 5642 5642 5642 5639 5636 5634 5632 5632
5670 5670 5670 5669 5669 5672 5660 5659 5664 5658 5654 5659 5660 5670 5673 5672 5672 5672 5674 5673 5668 5670 5664 5660 5657 5655 5651 5650 5648 5646 5641 5641 5640 5637 5634 5635 5636 5634 5633 5630 5628 5626 5625
5665 5666 5662 5661 5660 5656 5647 5647 5635 5646 5647 5650 5654 5663 5665 5670 5665 5667 5668 5667 5661 5660 5659 5653 5652 5650 5645 5644 5643 5640 5635 5636 5635 5632 5631 5629 5630 5628 5627 5625 5622 5620 5619
5659 5658 5655 5652 5645 5645 5639 5640 5634 5638 5638 5644 5649 5654 5660 5662 5664 5663 5661 5660 5656 5654 5653 5650 5649 5644 5639 5637 5634 5633 5630 5628 5631 5628 5625 5625 5624 5622 5620 5618 5614 5613 5611
5652 5653 5646 5645 5641 5632 5632 5626 5623 5633 5630 5639 5644 5647 5651 5654 5656 5657 5656 5656 5653 5651 5649 5647 5643 5638 5631 5629 5629 5629 5626 5625 5625 5624 5621 5620 5618 5616 5613 5612 5607 5606 5606
5646 5646 5642 5638 5630 5629 5630 5617 5610 5622 5623 5630 5639 5639 5644 5649 5650 5650 5653 5652 5648 5647 5643 5640 5635 5631 5627 5624 5626 5624 5623 5622 5621 5618 5616 5615 5612 5610 5606 5604 5603 5601 5599
5636 5639 5638 5638 5628 5622 5616 5615 5611 5613 5623 5626 5629 5633 5643 5645 5641 5644 5648 5646 5641 5640 5638 5633 5631 5627 5623 5623 5624 5619 5616 5615 5614 5613 5612 5609 5606 5604 5603 5600 5596 5595 5592
5632 5635 5635 5633 5621 5623 5624 5613 5605 5615 5617 5616 5617 5628 5639 5638 5636 5637 5641 5639 5638 5636 5632 5628 5626 5621 5619 5618 5615 5615 5616 5612 5608 5608 5607 5606 5601 5599 5597 5596 5592 5588 5585
5631 5623 5625 5627 5619 5618 5614 5614 5608 5609 5612 5610 5615 5626 5634 5636 5632 5631 5634 5632 5631 5629 5625 5623 5620 5615 5614 5614 5612 5613 5610 5608 5604 5605 5603 5601 5599 5594 5593 5590 5587 5582 5579
5625 5620 5620 5617 5616 5614 5616 5611 5605 5602 5605 5609 5614 5623 5633 5632 5627 5626 5627 5627 5624 5620 5617 5616 5611 5610 5607 5611 5610 5610 5609 5604 5603 5601 5597 5596 5592 5591 5588 5586 5582 5576 5571
5617 5616 5614 5613 5611 5614 5612 5609 5607 5607 5609 5614 5618 5625 5626 5626 5625 5624 5623 5620 5615 5611 5609 5607 5606 5603 5602 5603 5603 5606 5605 5602 5600 5597 5594 5590 5588 5587 5586 5582 5577 5572 5568
5611 5615 5616 5614 5613 5613 5613 5612 5614 5618 5617 5616 5618 5621 5620 5620 5620 5616 5615 5610 5607 5605 5603 5600 5599 5599 5596 5596 5595 5597 5598 5596 5595 5592 5591 5589 5585 5581 5580 5578 5572 5568 5563
5607 5609 5612 5614 5612 5611 5612 5614 5615 5619 5617 5614 5615 5617 5619 5617 5615 5610 5609 5603 5600 5596 5596 5594 5591 5589 5589 5592 5591 5590 5592 5589 5588 5588 5586 5583 5580 5577 5573 5570 5568 5562 5557
5607 5607 5607 5610 5612 5609 5609 5611 5611 5611 5612 5611 5611 5616 5614 5610 5606 5607 5602 5597 5592 5591 5592 5589 5587 5583 5584 5589 5587 5587 5588 5583 5583 5582 5581 5578 5573 5571 5566 5563 5559 5556 5552
5605 5604 5601 5604 5609 5606 5607 5606 5604 5603 5606 5605 5606 5610 5605 5603 5600 5599 5594 5592 5588 5586 5588 5590 5586 5582 5580 5582 5582 5581 5582 5579 5578 5577 5575 5571 5568 5565 5560 5558 5553 5549 5545
5606 5601 5597 5595 5600 5602 5598 5599 5597 5601 5600 5601 5601 5598 5597 5596 5596 5591 5590 5585 5587 5588 5586 5586 5583 5581 5582 5581 5579 5577 5573 5574 5575 5572 5570 5566 5564 5560 5557 5554 5548 5542 5538
5605 5596 5586 5587 5594 5595 5593 5595 5589 5591 5594 5595 5596 5593 5599 5590 5590 5586 5588 5589 5587 5588 5590 5587 5581 5581 5579 5578 5574 5570 5569 5570 5569 5567 5566 5562 5559 5556 5553 5549 5544 5537 5532
5604 5597 5593 5590 5591 5592 5593 5590 5586 5582 5585 5592 5595 5593 5587 5584 5583 5583 5584 5585 5584 5585 5585 5582 5583 5581 5580 5577 5571 5564 5566 5567 5564 5564 5561 5558 5556 5550 5545 5543 5536 5531 5527
5610 5606 5602 5596 5598 5597 5594 5586 5581 5576 5580 5585 5588 5587 5587 5586 5585 5586 5589 5586 5586 5585 5583 5583 5583 5584 5580 5574 5574 5570 5558 5561 5559 5560 5554 5552 5549 5545 5542 5537 5531 5527 5522
5612 5607 5603 5602 5600 5596 5593 5587 5584 5582 5584 5588 5584 5589 5588 5592 5595 5593 5590 5589 5586 5586 5585 5583 5584 5582 5579 5573 5568 5567 5565 5563 5556 5551 5548 5547 5544 5540 5537 5532 5529 5523 5518
5618 5612 5609 5607 5604 5603 5598 5591 5585 5585 5585 5584 5585 5585 5584 5586 5586 5587 5588 5585 5587 5587 5588 5586 5583 5580 5576 5570 5570 5561 5557 5553 5548 5540 5542 5544 5537 5535 5533 5528 5524 5518 5513
5623 5616 5611 5610 5611 5610 5607 5599 5595 5594 5590 5590 5587 5581 5581 5582 5585 5585 5585 5584 5586 5587 5588 5588 5583 5578 5576 5572 5570 5565 5560 5552 5541 5538 5536 5535 5532 5531 5526 5520 5514 5508 5502